******************************************************************************* JPL/HORIZONS 4486 Mithra (1987 SB) 2025-Dec-12 21:13:56 Rec #: 4486 (+COV) Soln.date: 2025-Dec-07_05:18:55 # obs: 1947 (1987-2025) IAU76/J2000 helio. ecliptic osc. elements (au, days, deg., period=Julian yrs): EPOCH= 2458376.5 ! 2018-Sep-15.00 (TDB) Residual RMS= .19677 EC= .6629764852344552 QR= .741425081850862 TP= 2458888.1301813368 OM= 82.23806266515891 W= 168.8862202674913 IN= 3.039784346749469 A= 2.199920923519668 MA= 205.4568983378162 ADIST= 3.658416765188475 PER= 3.26301 N= .302060174 ANGMOM= .019101089 DAN= 3.52825 DDN= .74701 L= 251.139532 B= .585678 MOID= .0463259 TP= 2020-Feb-08.6301813368 Asteroid physical parameters (km, seconds, rotational period in hours): GM= n.a. RAD= .9245 ROTPER= 67.5 H= 15.61 G= .150 B-V= n.a. ALBEDO= .297 STYP= n.a. ASTEROID comments: 1: soln ref.= JPL#380, PHA OCC=0 radar( 8 delay, 9 Dop.) 2: source=ORB ******************************************************************************* ******************************************************************************* Ephemeris / WWW_USER Fri Dec 12 21:13:56 2025 Pasadena, USA / Horizons ******************************************************************************* Target body name: 4486 Mithra (1987 SB) {source: JPL#380} Center body name: Venus (299) {source: DE441} Center-site name: BODYCENTRIC ******************************************************************************* Start time : A.D. 2150-Nov-04 17:27:00.0000 UT Stop time : A.D. 2150-Nov-05 00:00:00.0000 UT Step-size : 1440 minutes ******************************************************************************* Target pole/equ : undefined Target radii : 0.924 km Center geodetic : 0.0, 0.0, -6051.8 {E-lon(deg),Lat(deg),Alt(km)} Center cylindric: 0.0, 0.0, 0.0 {E-lon(deg),Dxy(km),Dz(km)} Center pole/equ : IAU_VENUS {East-longitude positive} Center radii : 6051.8, 6051.8, 6051.8 km {Equator_a, b, pole_c} Target primary : Sun Vis. interferer : None Rel. light bend : Sun {source: DE441} Rel. lght bnd GM: 1.3271E+11 km^3/s^2 Small-body perts: Yes {source: SB441-N16} Atmos refraction: NO (AIRLESS) RA format : HMS Time format : CAL Calendar mode : Mixed Julian/Gregorian EOP file : eop.251212.p260310 EOP coverage : DATA-BASED 1962-JAN-20 TO 2025-DEC-12. PREDICTS-> 2026-MAR-09 Units conversion: 1 au= 149597870.700 km, c= 299792.458 km/s, 1 day= 86400.0 s Table cut-offs 1: Elevation (-90.0deg=NO ),Airmass n.a. , Daylight (NO ) Table cut-offs 2: Solar elongation ( 0.0,180.0=NO ),Local Hour Angle( 0.0=NO ) Table cut-offs 3: RA/DEC angular rate ( 0.0=NO ) ******************************************************************************* Initial IAU76/J2000 heliocentric ecliptic osculating elements (au, days, deg.): EPOCH= 2458376.5 ! 2018-Sep-15.00 (TDB) Residual RMS= .19677 EC= .6629764852344552 QR= .741425081850862 TP= 2458888.1301813368 OM= 82.23806266515891 W= 168.8862202674913 IN= 3.039784346749469 Equivalent ICRF heliocentric cartesian coordinates (au, au/d): X= 7.443507601551609E-01 Y= 3.242840510535640E+00 Z= 1.390837723370468E+00 VX=-5.432040856789883E-03 VY=-2.275950622562422E-04 VZ= 2.118791068513650E-04 Asteroid physical parameters (km, seconds, rotational period in hours): GM= n.a. RAD= .9245 ROTPER= 67.5 H= 15.61 G= .150 B-V= n.a. ALBEDO= .297 STYP= n.a. ******************************************************************************* Date__(UT)__HR:MN delta deldot RNG_3sigma RNGRT_3sig ************************************************************************** $$SOE 2150-Nov-04 17:27 0.01382370331988 0.0671292 465.2880 0.0016919 $$EOE ******************************************************************************* Column meaning: TIME Times PRIOR to 1962 are UT1, a mean-solar time closely related to the prior but now-deprecated GMT. Times AFTER 1962 are in UTC, the current civil or "wall-clock" time-scale. UTC is kept within 0.9 seconds of UT1 using integer leap-seconds for 1972 and later years. Conversion from the internal Barycentric Dynamical Time (TDB) of solar system dynamics to the non-uniform civil UT time-scale requested for output has not been determined for UTC times after the next July or January 1st. Therefore, the last known leap-second is used as a constant over future intervals. Time tags refer to the UT time-scale conversion from TDB on Earth regardless of observer location within the solar system, although clock rates may differ due to the local gravity field and no analog to "UT" may be defined for that location. Any 'b' symbol in the 1st-column denotes a B.C. date. First-column blank (" ") denotes an A.D. date. CALENDAR SYSTEM Mixed calendar mode was active such that calendar dates after AD 1582-Oct-15 (if any) are in the modern Gregorian system. Dates prior to 1582-Oct-5 (if any) are in the Julian calendar system, which is automatically extended for dates prior to its adoption on 45-Jan-1 BC. The Julian calendar is useful for matching historical dates. The Gregorian calendar more accurately corresponds to the Earth's orbital motion and seasons. A "Gregorian-only" calendar mode is available if such physical events are the primary interest. NOTE: "n.a." in output means quantity "not available" at the print-time. STATISTICAL UNCERTAINTIES Output includes formal +/- 3 standard-deviation statistical orbit uncertainty quantities. There is a 99.7% (1-D) or 98.9% (2-D) chance the actual value is within given bounds. These statistical calculations assume observational data errors are random. If there are systematic biases (such as timing, reduction or star-catalog errors), results can be optimistic. Because the epoch covariance is mapped using linearized variational partial derivatives, results can also be optimistic for times far from the solution epoch, particularly for objects having close planetary encounters. 'delta deldot' = Apparent range ("delta", light-time aberrated) and range-rate ("delta-dot") of the target center relative to the observer. A positive "deldot" means the target center is moving away from the observer, negative indicates movement toward the observer. Units: AU and KM/S 'RNG_3sigma RNGRT_3sig' = Range and range rate (radial velocity) formal 3-standard-deviation uncertainties. Units: KM, KM/S Computations by ... Solar System Dynamics Group, Horizons On-Line Ephemeris System 4800 Oak Grove Drive, Jet Propulsion Laboratory Pasadena, CA 91109 USA General site: https://ssd.jpl.nasa.gov/ Mailing list: https://ssd.jpl.nasa.gov/email_list.html System news : https://ssd.jpl.nasa.gov/horizons/news.html User Guide : https://ssd.jpl.nasa.gov/horizons/manual.html Connect : browser https://ssd.jpl.nasa.gov/horizons/app.html#/x API https://ssd-api.jpl.nasa.gov/doc/horizons.html command-line telnet ssd.jpl.nasa.gov 6775 e-mail/batch https://ssd.jpl.nasa.gov/ftp/ssd/horizons_batch.txt scripts https://ssd.jpl.nasa.gov/ftp/ssd/SCRIPTS Author : Jon.D.Giorgini@jpl.nasa.gov ******************************************************************************* !$$SOF CENTER = '@299' COMMAND = '4486' QUANTITIES = '20,39' START_TIME = '2150-11-04 17:27' STEP_SIZE = '1 day' STOP_TIME = '2150-11-05'